Temperature
22 22 22 22 19 17 19 20 20 21 21 21 20 19 18 18 18 17 17 17 17 17 17 17 17 17 17 17 17 17 17 18 18 18 18 18 18 18 18 18 18 18 18 18 18 18 18 18 18
22 22 22 21 17 18 19 20 20 21 21 21 21 20 18 17 17 17 17 17 17 17 17 17 17 17 17 17 17 17 17 17 18 18 17 17 17 18 18 18 18 18 18 18 18 18 18 17 17
22 22 22 18 18 18 19 20 20 22 22 22 20 19 18 17 17 17 17 17 17 17 17 17 17 17 17 17 17 17 17 17 17 17 17 17 17 17 17 17 18 18 18 18 17 17 17 17 17
22 22 21 18 19 19 20 20 21 22 22 21 20 18 18 18 18 17 17 17 17 17 17 17 17 17 17 17 17 17 17 17 17 17 17 17 17 17 17 17 17 17 17 17 17 17 17 17 17
22 22 18 18 19 20 20 21 22 21 21 20 19 18 17 18 18 17 17 17 17 17 17 17 17 17 17 17 17 17 17 17 17 17 17 17 17 17 17 17 17 17 17 17 17 17 17 17 17
22 19 18 18 20 21 21 22 22 21 20 20 19 18 17 18 18 17 17 17 17 17 17 17 17 17 17 17 17 17 17 17 17 17 17 17 17 17 17 17 17 17 17 17 17 17 17 17 17
21 18 18 19 20 21 22 23 22 20 20 20 20 17 17 17 18 17 17 17 17 17 17 17 17 17 17 17 17 16 16 16 16 16 16 16 16 16 16 16 16 16 16 16 16 16 16 16 16
23 18 19 19 20 21 22 23 22 22 21 21 20 18 17 18 18 18 17 17 17 17 17 17 17 17 16 16 16 16 16 16 16 16 16 16 16 16 16 16 16 16 16 16 16 16 16 16 16
23 18 18 20 20 21 22 22 22 22 21 21 20 20 19 18 18 18 17 17 17 17 17 17 17 16 16 16 16 16 16 16 16 16 16 16 16 16 16 16 16 16 16 16 16 16 16 16 16
22 18 20 21 21 21 22 22 22 21 20 20 20 19 19 18 18 18 18 17 17 17 17 17 17 16 16 16 16 16 16 16 16 16 16 16 16 16 16 16 16 16 16 16 16 16 16 16 16
21 19 20 22 22 22 22 22 22 21 19 19 19 19 19 18 18 18 18 18 17 17 17 17 17 16 16 16 16 16 16 16 16 16 16 16 16 16 16 16 16 16 16 16 16 16 16 16 16
21 21 22 22 23 23 22 22 22 21 21 21 21 20 19 19 18 18 18 18 18 17 17 17 17 17 16 16 16 16 16 16 16 16 16 16 16 16 16 15 15 15 15 15 15 15 15 15 15
21 21 22 23 23 23 23 22 22 21 22 21 20 20 19 19 19 18 18 18 18 18 17 17 17 17 17 16 16 16 16 16 16 16 15 15 16 15 15 15 15 15 15 15 15 15 15 15 15
22 22 22 22 22 22 21 21 21 21 21 20 20 19 19 19 19 19 18 18 18 18 18 17 17 17 17 16 16 16 16 16 16 16 15 15 15 15 15 15 15 15 15 15 15 15 15 15 15
22 21 21 21 22 22 21 20 20 21 20 20 19 19 19 19 19 19 19 19 18 18 18 17 17 17 17 16 16 16 16 16 16 15 15 15 15 15 15 15 15 15 15 15 15 15 15 15 15
21 20 19 20 21 21 21 19 19 20 20 19 19 19 19 19 19 19 19 19 18 18 18 17 17 17 17 16 16 16 16 16 16 15 15 15 15 15 15 15 15 15 15 15 15 15 14 14 14
19 18 19 20 20 20 19 19 19 20 20 19 19 19 19 19 19 19 19 19 18 18 18 18 17 17 17 16 16 16 16 16 15 15 15 15 15 15 15 15 15 14 14 14 14 14 14 14 14
18 19 19 19 20 20 19 18 18 20 19 19 19 19 19 19 19 19 19 19 18 18 18 18 17 17 17 16 16 16 16 15 15 15 15 15 15 15 15 15 14 14 14 14 14 14 14 14 14
20 19 19 20 21 20 19 18 18 19 19 19 19 19 19 19 19 19 19 18 18 18 18 18 17 17 17 16 16 16 16 15 15 15 15 15 15 15 14 14 14 14 14 14 14 14 13 13 13
20 20 19 20 21 20 19 18 18 18 18 19 19 18 19 19 19 19 18 18 18 18 18 18 17 17 17 16 16 16 16 15 15 15 15 15 15 14 14 14 14 14 14 13 13 13 13 13 13
20 20 20 20 20 20 19 18 18 18 19 19 19 19 19 19 19 19 18 18 18 18 18 18 17 17 17 16 16 16 15 15 15 15 15 15 15 14 14 14 14 14 13 13 13 13 13 13 13
20 21 21 20 19 17 19 17 17 17 18 18 18 19 19 19 19 19 19 18 18 18 18 18 17 17 17 16 16 16 16 15 15 15 15 15 14 14 14 14 14 13 13 13 13 13 13 13 13
20 21 21 20 19 18 17 17 16 17 17 17 17 19 19 19 19 19 19 19 18 18 18 17 17 17 16 16 16 16 16 15 15 15 15 14 14 14 14 14 13 13 13 13 13 13 13 12 12
21 19 19 17 16 17 17 17 16 16 17 17 18 19 19 19 19 19 19 19 18 18 18 17 17 17 16 16 16 16 15 15 15 15 14 14 14 14 14 13 13 13 13 13 13 12 12 12 12
19 17 16 16 15 16 17 17 16 17 17 18 18 18 19 19 19 18 18 18 18 18 17 17 17 16 16 16 16 15 15 15 15 15 14 14 14 14 14 13 13 13 13 13 12 12 12 12 12
19 17 16 16 16 16 17 16 17 18 18 18 18 18 18 18 18 18 18 18 18 18 17 17 17 16 16 16 15 15 15 15 15 14 14 14 14 14 14 13 13 13 13 12 12 12 12 12 11
19 17 17 16 16 16 16 16 17 18 17 17 17 17 17 18 18 18 18 18 18 17 17 17 16 16 16 15 15 15 15 15 15 14 14 14 14 14 13 13 13 13 12 12 12 12 12 11 11
19 18 15 16 16 15 16 16 16 17 17 17 16 16 17 17 17 17 17 17 17 17 17 17 16 16 16 15 15 15 15 15 14 14 14 14 14 13 13 13 13 13 12 12 12 12 11 11 11
19 18 16 14 15 15 15 15 17 16 16 16 16 16 17 17 17 17 17 17 17 17 16 16 16 16 15 15 15 15 15 14 14 14 14 14 14 13 13 13 13 12 12 12 12 11 11 11 11
18 18 16 15 15 14 14 15 17 16 16 16 16 17 16 16 16 17 17 16 16 16 16 16 16 15 15 15 15 15 14 14 14 14 14 14 13 13 13 13 13 12 12 12 12 11 11 11 11
Wind_Speed
3 1 3 3 6 6 3 1 2 3 4 5 8 10 9 6 4 5 3 6 8 6 7 8 9 10 11 11 12 12 13 13 13 13 13 13 13 13 13 13 12 12 12 12 11 11 11 11 11
1 1 3 5 5 4 1 0 4 4 6 7 8 8 7 6 4 6 4 7 8 7 7 8 10 10 11 12 12 12 12 12 13 13 12 12 12 12 12 12 11 11 11 11 10 10 10 10 10
1 1 4 5 4 4 4 3 4 5 6 5 5 6 5 5 5 4 6 10 8 7 8 9 10 11 11 11 11 12 12 12 12 12 12 12 11 11 11 11 11 10 10 10 9 9 9 9 9
3 5 5 5 3 2 5 5 5 5 5 6 6 6 4 3 5 6 10 11 9 6 8 9 10 10 11 12 12 12 11 11 11 11 11 11 11 11 11 11 11 10 10 9 9 9 9 8 8
4 5 5 3 2 1 3 5 6 6 4 5 7 6 4 3 8 11 11 10 10 6 7 9 10 10 11 11 11 11 11 11 11 11 10 10 10 10 10 10 11 10 10 9 9 9 9 8 7
4 5 4 1 1 2 2 4 7 8 7 6 7 6 3 3 9 10 10 9 9 7 7 8 10 10 10 10 10 10 10 10 10 10 9 9 9 9 9 9 9 9 9 9 9 9 9 9 9
5 4 3 3 2 2 3 4 7 7 6 5 7 6 4 3 7 9 9 8 8 7 6 6 7 8 9 10 10 10 10 10 9 9 9 8 8 8 8 8 9 9 8 8 8 8 9 9 10
5 5 2 1 3 2 2 3 5 7 5 5 6 8 7 7 8 8 8 8 7 6 6 5 6 7 7 8 9 9 8 8 8 8 8 8 8 7 7 7 7 8 8 8 8 8 8 9 9
5 5 1 3 4 3 3 5 3 4 6 4 4 6 9 11 10 9 7 5 6 6 5 5 5 5 6 6 6 6 6 6 6 5 6 7 6 6 6 6 7 7 7 7 8 9 9 9 9
5 3 3 3 4 4 4 6 5 4 6 4 6 7 11 11 11 10 9 8 7 7 6 5 5 5 5 5 5 4 3 4 4 4 5 6 6 6 6 6 6 6 7 8 9 9 9 8 7
4 5 3 1 2 4 4 4 4 8 4 7 11 13 12 10 10 9 9 8 8 8 7 6 6 5 4 3 4 3 3 4 4 4 5 6 6 5 5 5 6 6 7 7 7 8 7 7 6
3 2 3 2 2 3 4 4 4 6 7 10 14 16 13 12 11 10 10 9 8 8 8 7 6 5 5 4 3 3 3 3 3 4 5 5 4 3 3 4 4 5 5 5 5 5 6 6 6
2 1 1 2 3 3 3 4 4 4 6 10 11 12 12 11 9 8 8 9 8 8 8 7 7 6 5 4 3 3 3 3 4 4 5 6 4 3 2 2 3 4 5 4 4 4 4 5 5
4 2 1 0 1 2 4 2 4 4 9 12 12 10 11 10 10 8 8 8 7 8 8 7 8 7 6 4 3 3 3 4 4 4 5 6 5 4 3 2 2 3 4 4 4 4 4 4 4
2 1 2 1 2 2 4 1 2 6 10 11 10 9 9 9 10 10 11 9 8 8 7 7 8 6 6 5 4 4 4 4 4 4 5 6 6 5 4 2 2 2 4 5 5 5 4 4 4
3 2 1 4 2 2 6 4 5 6 10 9 8 7 7 7 8 9 10 9 8 8 7 8 7 7 6 5 4 3 4 4 3 4 5 6 6 7 5 3 2 3 4 4 3 3 3 4 3
2 1 4 4 3 3 5 4 4 6 10 10 9 8 7 6 5 6 8 9 10 9 9 8 7 8 6 5 4 4 4 3 4 5 5 5 6 7 6 3 2 4 4 3 3 3 3 3 3
4 4 4 5 4 4 4 5 5 6 9 11 10 9 8 8 7 7 8 8 9 9 9 8 8 7 6 5 4 3 3 2 3 4 4 5 5 6 6 4 3 4 3 3 3 3 3 2 2
5 4 4 5 4 5 5 6 7 7 7 8 8 9 9 9 7 7 8 8 8 8 8 8 8 6 6 4 4 3 2 1 2 2 4 5 6 6 6 3 3 3 3 2 3 3 3 3 2
3 3 3 3 3 4 4 6 6 6 8 10 12 11 11 9 6 7 7 8 8 9 8 8 8 7 6 5 4 3 3 2 1 1 3 4 5 6 5 4 3 3 3 3 3 3 2 1 2
2 3 4 4 2 1 0 4 4 5 5 7 9 10 11 13 12 10 9 8 8 8 9 9 8 8 6 6 4 4 3 3 2 1 1 1 4 5 5 5 4 3 3 3 2 2 3 2 1
4 4 4 3 0 3 1 3 6 5 4 6 8 9 10 11 11 11 10 9 10 9 8 8 8 7 7 7 7 7 4 3 3 2 2 1 2 4 5 5 5 3 3 3 2 2 2 3 1
5 3 3 2 2 2 1 2 7 2 4 7 8 10 10 11 12 12 12 12 10 9 8 7 7 7 7 7 8 7 5 3 2 2 2 1 1 2 4 5 4 3 3 2 2 2 2 2 2
1 4 4 4 3 2 4 4 5 4 7 6 7 8 10 10 10 10 10 9 7 7 7 7 7 6 6 7 7 7 7 6 4 3 3 2 1 1 2 3 3 3 3 3 2 2 2 2 2
5 5 3 4 3 4 2 3 5 6 5 5 5 7 8 9 9 9 8 9 8 8 8 7 8 7 6 7 7 7 7 8 7 6 5 4 2 2 3 3 3 3 3 3 3 2 2 2 2
3 7 5 3 3 4 2 3 5 5 3 1 1 3 5 6 7 8 9 10 10 9 8 8 8 7 7 7 7 6 7 6 5 6 5 5 4 4 4 4 4 3 3 3 3 2 2 2 2
3 3 6 5 1 2 3 4 5 4 4 3 2 3 3 4 5 6 6 7 8 8 8 9 8 7 7 7 7 6 7 6 6 6 5 4 4 4 4 4 4 3 3 3 3 2 2 2 2
4 5 5 3 1 2 4 3 3 4 2 1 0 2 2 3 4 4 5 6 6 6 6 6 7 8 6 6 6 6 6 7 6 6 5 5 4 4 4 4 4 4 3 3 3 2 2 2 1
1 1 3 3 4 4 2 5 3 3 2 2 3 3 3 4 4 4 5 5 4 4 4 5 6 5 5 6 6 6 6 6 6 6 6 6 5 5 5 5 5 4 3 3 3 3 2 2 2
4 3 4 3 3 3 3 5 4 1 1 2 1 1 2 3 3 4 4 4 3 3 3 4 5 5 5 5 5 6 6 5 6 6 5 5 5 5 5 5 5 4 4 4 4 4 3 3 3
Wind_Direction
302 343 95 62 54 57 66 352 118 72 63 62 76 83 85 70 91 133 180 136 131 129 117 103 98 95 93 92 90 88 87 86 85 83 82 80 78 78 78 79 82 83 82 80 77 77 76 76 75
333 44 66 58 79 80 48 294 92 104 131 120 81 81 81 75 86 113 127 140 130 124 118 109 103 99 97 95 93 91 90 90 89 87 85 83 81 80 79 77 80 82 81 80 77 75 74 74 75
312 94 77 67 91 142 158 184 140 122 111 103 82 63 84 110 115 132 148 142 126 117 119 119 110 105 102 100 99 96 94 92 91 89 89 86 85 83 80 79 80 79 79 79 78 76 74 71 70
58 46 56 72 86 173 165 177 154 116 77 71 97 69 62 99 134 137 137 131 122 116 119 124 116 109 105 103 102 99 96 95 94 92 91 90 89 86 83 80 80 78 77 76 76 74 71 68 67
64 71 59 59 94 132 146 159 139 110 91 87 95 90 62 50 114 126 134 133 130 128 125 126 123 117 110 109 107 103 100 97 94 93 92 90 90 89 85 81 79 78 76 75 73 71 66 59 63
55 68 81 93 120 126 139 134 111 100 106 108 101 107 113 125 125 136 138 136 135 136 132 128 126 122 117 114 110 106 103 99 95 91 93 91 89 89 86 83 81 79 75 73 71 68 64 58 59
102 91 127 153 126 116 150 126 115 119 114 127 125 110 133 161 152 144 138 135 133 133 130 125 125 123 122 119 115 109 104 99 94 90 89 91 88 87 87 86 83 81 76 72 68 64 62 56 55
123 100 82 125 139 167 157 112 119 122 118 125 119 134 163 189 164 140 136 131 133 133 134 133 131 127 124 122 117 115 111 106 97 89 86 87 86 85 86 87 86 81 76 69 63 61 61 55 55
94 80 130 190 165 183 147 107 94 94 105 89 104 147 162 158 143 131 128 124 136 140 146 145 140 138 133 132 124 118 111 106 99 92 86 83 83 81 78 81 83 77 68 62 60 62 61 58 56
88 124 209 204 173 168 152 136 137 99 92 82 83 109 134 143 145 146 149 151 153 154 163 165 157 153 152 145 126 116 104 97 100 96 94 88 89 82 77 71 69 62 56 55 60 62 61 58 53
126 168 201 213 170 147 145 148 135 127 141 166 154 151 152 152 156 158 164 163 165 166 164 168 165 158 154 136 129 120 106 99 101 104 111 102 93 81 73 68 59 52 54 55 52 52 55 59 60
128 194 179 188 149 135 157 148 129 155 185 173 161 157 159 160 166 166 169 169 165 163 169 170 161 154 154 139 133 126 113 107 105 109 117 112 101 88 81 73 60 55 58 58 54 56 53 57 57
135 190 180 171 142 141 125 136 143 166 155 147 150 151 160 165 169 173 170 166 161 165 167 164 159 154 146 133 134 120 116 120 115 100 116 125 119 109 93 79 70 61 63 66 60 58 50 49 50
179 177 161 157 146 147 127 119 114 174 150 147 153 161 169 170 169 161 160 163 164 166 166 158 158 151 139 135 132 125 123 121 106 100 111 119 122 117 106 84 68 66 78 82 77 68 57 49 55
145 89 346 287 211 185 120 61 196 172 155 154 165 173 177 177 170 169 170 167 165 165 159 156 157 145 138 136 136 123 122 114 99 102 106 111 117 115 112 98 76 79 89 86 78 64 64 58 54
71 81 279 275 214 174 132 220 244 171 156 165 170 172 175 183 176 176 171 165 162 156 152 156 150 141 135 132 128 117 113 108 101 105 105 107 112 112 106 96 84 94 91 86 79 70 68 56 48
41 189 237 269 224 169 152 220 236 186 167 178 182 181 181 181 177 171 169 165 161 159 154 149 143 146 142 133 122 112 107 100 101 103 102 102 107 110 108 100 98 98 88 77 85 72 79 76 55
216 220 229 230 225 165 189 233 229 200 182 188 190 188 187 185 191 173 163 164 162 160 154 146 145 147 138 126 109 92 81 74 80 94 106 105 105 108 106 103 95 95 84 72 81 81 64 76 62
192 204 232 240 221 171 210 237 234 213 199 197 198 193 193 193 193 174 165 158 156 156 154 153 150 154 144 138 136 127 127 106 71 92 109 107 106 108 107 102 96 90 93 102 103 96 77 52 54
194 214 252 277 238 183 210 245 241 216 208 203 198 196 194 192 182 178 170 164 162 164 163 163 162 163 161 159 159 153 150 147 148 117 96 111 115 118 119 114 115 107 97 87 89 99 93 60 54
221 203 221 237 300 318 95 308 282 254 226 214 202 195 191 188 186 182 177 172 167 168 170 170 171 167 163 152 133 109 81 66 65 79 111 123 127 124 125 127 124 125 119 128 117 119 117 117 22
247 233 214 218 137 275 183 269 281 259 238 220 213 202 196 193 187 183 180 177 178 178 171 167 168 166 164 155 151 151 154 165 194 189 185 176 134 129 131 135 134 137 134 139 150 124 122 124 116
224 238 221 207 170 299 314 181 285 270 244 241 223 212 203 193 186 184 183 185 181 173 166 165 164 167 166 162 162 161 162 174 169 153 154 167 157 139 140 146 142 148 154 157 144 124 116 125 141
146 40 33 46 75 291 248 188 278 250 234 237 226 213 201 189 185 185 183 174 170 166 165 163 166 172 174 171 171 170 169 167 158 161 167 181 189 205 164 154 152 158 169 174 173 159 146 146 140
69 77 31 2 3 260 248 174 253 267 246 226 221 208 194 183 176 178 174 172 172 173 176 174 174 182 184 181 184 183 179 174 177 179 180 178 182 202 207 170 167 174 184 178 169 160 171 167 161
176 143 156 199 228 277 326 230 262 294 295 280 138 166 163 167 171 176 183 182 181 180 181 180 184 191 191 190 195 191 184 182 188 186 181 185 191 200 194 177 173 173 170 170 167 168 183 168 177
153 177 177 155 220 271 285 288 316 350 12 30 77 100 135 161 165 176 183 185 184 183 187 189 187 194 196 195 193 191 187 186 190 186 181 184 189 192 181 173 174 176 170 167 167 176 189 178 188
163 154 97 117 175 267 291 272 261 281 302 333 91 157 169 160 166 167 169 179 185 190 191 190 188 194 197 195 192 191 192 189 186 177 178 180 187 184 176 176 175 178 177 166 157 165 189 168 191
144 122 122 136 157 164 253 273 242 219 211 221 222 200 181 168 170 175 180 181 177 176 177 186 190 193 196 198 197 187 192 187 178 179 184 183 183 181 180 183 179 178 179 178 165 174 169 171 190
177 177 150 161 223 176 185 262 296 221 186 161 210 213 172 158 161 167 164 157 158 171 182 192 198 200 204 199 191 189 187 179 179 183 187 179 178 184 184 181 179 184 182 179 176 186 176 175 183
Height
1505 1504 1504 1505 1508 1521 1525 1519 1513 1512 1512 1513 1512 1513 1517 1521 1525 1532 1529 1528 1528 1528 1528 1528 1527 1526 1526 1525 1525 1524 1524 1524 1524 1523 1523 1523 1523 1523 1523 1523 1522 1522 1522 1522 1522 1523 1523 1523 1523
1505 1504 1505 1505 1517 1532 1528 1518 1515 1512 1512 1513 1514 1516 1519 1523 1524 1526 1527 1528 1529 1529 1529 1528 1528 1527 1527 1526 1526 1525 1525 1525 1525 1525 1524 1524 1524 1524 1524 1524 1524 1524 1524 1524 1524 1524 1524 1523 1523
1505 1505 1506 1510 1520 1529 1525 1516 1513 1511 1512 1512 1516 1518 1521 1524 1525 1526 1527 1529 1529 1529 1529 1529 1529 1528 1528 1527 1527 1527 1526 1526 1526 1526 1526 1526 1525 1525 1525 1525 1525 1525 1525 1525 1525 1524 1524 1524 1524
1505 1506 1508 1516 1521 1518 1515 1513 1512 1512 1513 1514 1516 1521 1523 1526 1526 1527 1528 1529 1530 1530 1530 1530 1529 1529 1529 1528 1528 1528 1528 1528 1527 1527 1527 1527 1527 1527 1526 1526 1526 1526 1526 1526 1525 1525 1525 1525 1524
1505 1507 1514 1522 1519 1514 1511 1511 1511 1512 1514 1516 1517 1522 1525 1527 1527 1528 1529 1530 1530 1530 1530 1530 1530 1530 1530 1529 1529 1529 1529 1529 1529 1528 1528 1528 1528 1528 1528 1527 1527 1527 1527 1527 1526 1526 1526 1525 1523
1507 1508 1523 1527 1520 1514 1511 1510 1511 1513 1516 1518 1519 1523 1527 1528 1528 1529 1530 1531 1531 1531 1531 1531 1531 1531 1531 1530 1530 1530 1530 1530 1530 1529 1529 1529 1529 1529 1529 1529 1528 1528 1528 1528 1527 1527 1526 1525 1523
1508 1513 1522 1522 1520 1516 1512 1511 1511 1513 1515 1517 1518 1523 1527 1529 1529 1530 1531 1531 1532 1532 1532 1532 1532 1532 1532 1531 1531 1531 1531 1531 1531 1531 1530 1530 1530 1530 1530 1530 1529 1529 1529 1528 1528 1528 1527 1526 1525
1506 1513 1520 1521 1520 1516 1511 1511 1512 1513 1516 1518 1518 1521 1525 1528 1529 1530 1531 1532 1532 1533 1533 1533 1533 1533 1533 1533 1533 1533 1532 1532 1532 1532 1531 1531 1531 1531 1530 1530 1530 1530 1530 1530 1529 1528 1528 1527 1527
1507 1517 1523 1519 1517 1514 1511 1511 1513 1514 1515 1517 1518 1519 1522 1526 1528 1530 1531 1532 1533 1533 1534 1534 1534 1534 1534 1534 1534 1534 1533 1533 1533 1533 1532 1532 1532 1531 1531 1531 1531 1531 1531 1530 1530 1529 1529 1528 1528
1507 1519 1516 1511 1510 1510 1510 1511 1513 1515 1516 1518 1519 1521 1523 1525 1528 1529 1530 1531 1532 1533 1534 1534 1534 1534 1534 1534 1534 1534 1534 1534 1534 1534 1533 1533 1533 1532 1532 1532 1532 1532 1531 1531 1531 1530 1530 1529 1529
1507 1512 1509 1508 1508 1509 1510 1511 1512 1514 1517 1517 1518 1520 1523 1525 1527 1529 1530 1531 1532 1533 1534 1534 1534 1535 1535 1535 1535 1535 1535 1535 1534 1534 1534 1534 1533 1533 1533 1533 1533 1532 1532 1532 1531 1531 1531 1530 1530
1508 1508 1507 1508 1508 1509 1510 1511 1512 1513 1514 1515 1517 1518 1521 1524 1526 1528 1529 1531 1532 1533 1533 1534 1535 1535 1535 1535 1535 1535 1535 1535 1535 1535 1534 1534 1534 1534 1533 1533 1533 1533 1532 1532 1532 1532 1531 1531 1531
1507 1508 1507 1507 1507 1508 1509 1510 1511 1512 1513 1515 1517 1520 1522 1524 1525 1527 1529 1530 1531 1532 1533 1534 1534 1535 1535 1535 1536 1536 1536 1535 1535 1535 1535 1535 1534 1534 1534 1533 1533 1533 1533 1533 1532 1532 1532 1531 1531
1506 1506 1507 1507 1507 1508 1509 1511 1511 1513 1513 1515 1517 1519 1521 1523 1524 1526 1528 1529 1531 1532 1533 1533 1534 1535 1535 1535 1535 1536 1536 1536 1536 1535 1535 1535 1535 1534 1534 1534 1533 1533 1533 1533 1533 1532 1532 1532 1531
1506 1508 1509 1508 1507 1508 1509 1514 1512 1512 1513 1515 1517 1518 1520 1522 1524 1525 1526 1528 1530 1531 1532 1533 1534 1534 1535 1535 1536 1536 1536 1536 1536 1535 1535 1535 1535 1534 1534 1534 1533 1533 1533 1533 1533 1532 1532 1532 1532
1508 1513 1518 1510 1508 1508 1513 1520 1512 1511 1512 1514 1516 1518 1519 1521 1523 1524 1526 1527 1529 1530 1531 1532 1533 1534 1534 1535 1535 1535 1536 1536 1536 1535 1535 1535 1535 1534 1534 1534 1533 1533 1533 1533 1532 1532 1532 1532 1532
1515 1522 1520 1513 1507 1508 1512 1516 1510 1510 1511 1513 1514 1516 1517 1519 1521 1523 1524 1526 1527 1529 1530 1531 1532 1533 1534 1534 1535 1535 1535 1535 1535 1535 1535 1535 1534 1534 1534 1533 1533 1533 1532 1532 1532 1532 1532 1531 1531
1521 1520 1517 1515 1508 1508 1512 1513 1509 1509 1509 1510 1512 1513 1515 1517 1519 1521 1522 1524 1526 1527 1529 1530 1531 1532 1533 1534 1534 1534 1535 1535 1535 1535 1535 1534 1534 1534 1533 1533 1532 1532 1532 1532 1531 1531 1531 1531 1531
1510 1514 1516 1511 1504 1508 1512 1511 1508 1507 1508 1509 1510 1511 1513 1514 1517 1519 1521 1522 1524 1526 1527 1528 1529 1530 1531 1532 1532 1533 1533 1534 1534 1534 1534 1534 1534 1533 1533 1532 1532 1531 1531 1531 1531 1531 1531 1531 1531
1507 1512 1513 1508 1503 1506 1510 1509 1505 1505 1505 1505 1506 1507 1509 1512 1514 1517 1518 1520 1521 1523 1525 1526 1527 1529 1530 1531 1531 1532 1533 1533 1533 1533 1533 1533 1533 1533 1532 1532 1531 1531 1531 1530 1530 1530 1530 1530 1530
1507 1510 1510 1510 1506 1505 1509 1512 1507 1503 1502 1503 1503 1504 1506 1508 1510 1513 1515 1517 1519 1521 1522 1524 1525 1527 1528 1529 1530 1531 1532 1532 1532 1532 1532 1532 1532 1532 1531 1531 1531 1530 1530 1530 1530 1529 1529 1529 1529
1509 1502 1502 1505 1513 1518 1512 1526 1512 1504 1502 1501 1501 1502 1503 1505 1507 1510 1512 1514 1516 1518 1520 1522 1523 1525 1526 1527 1528 1529 1529 1530 1530 1530 1531 1531 1531 1531 1530 1530 1530 1530 1529 1529 1529 1529 1529 1529 1529
1502 1498 1500 1503 1510 1517 1516 1524 1517 1505 1504 1500 1498 1498 1500 1502 1504 1506 1509 1511 1513 1515 1517 1519 1521 1523 1524 1525 1526 1527 1528 1528 1529 1529 1529 1529 1529 1529 1529 1529 1529 1529 1528 1528 1528 1528 1528 1528 1528
1497 1500 1504 1509 1516 1527 1518 1523 1520 1509 1502 1497 1495 1495 1497 1499 1501 1504 1506 1509 1511 1513 1515 1517 1518 1520 1521 1523 1524 1525 1525 1526 1527 1527 1527 1527 1527 1527 1528 1528 1528 1527 1527 1527 1527 1527 1527 1527 1527
1501 1515 1528 1529 1535 1531 1516 1519 1516 1500 1495 1493 1492 1492 1493 1496 1498 1501 1504 1506 1509 1511 1512 1514 1515 1517 1519 1520 1521 1522 1523 1524 1524 1525 1525 1525 1525 1525 1526 1526 1526 1526 1526 1526 1526 1526 1526 1526 1526
1503 1512 1530 1537 1538 1530 1517 1519 1509 1497 1494 1492 1491 1491 1492 1494 1497 1499 1501 1503 1506 1507 1510 1511 1513 1514 1516 1517 1518 1520 1521 1521 1522 1522 1523 1523 1523 1524 1524 1524 1524 1524 1524 1524 1524 1524 1524 1524 1524
1503 1510 1510 1523 1525 1531 1525 1515 1504 1496 1494 1492 1492 1492 1493 1494 1495 1497 1499 1502 1503 1505 1507 1508 1510 1511 1513 1514 1516 1517 1518 1519 1520 1520 1521 1521 1521 1522 1522 1522 1522 1522 1522 1522 1522 1522 1522 1523 1523
1497 1502 1515 1522 1531 1535 1527 1519 1515 1502 1498 1495 1494 1493 1493 1494 1495 1497 1498 1499 1501 1503 1504 1506 1507 1508 1510 1511 1513 1514 1515 1516 1517 1518 1518 1518 1519 1519 1520 1520 1520 1520 1520 1520 1520 1520 1521 1521 1521
1500 1503 1510 1519 1523 1532 1534 1524 1501 1499 1497 1497 1495 1493 1493 1494 1495 1496 1497 1498 1500 1501 1502 1503 1505 1506 1507 1508 1510 1511 1512 1513 1514 1515 1516 1516 1517 1517 1517 1517 1518 1518 1518 1518 1518 1518 1519 1519 1519
1496 1501 1508 1520 1522 1524 1529 1522 1497 1496 1495 1495 1494 1494 1493 1494 1494 1495 1496 1497 1498 1499 1500 1501 1502 1503 1504 1505 1507 1508 1509 1510 1511 1512 1513 1514 1514 1514 1515 1515 1515 1515 1515 1515 1516 1516 1516 1516 1517